Murray, KY

10:29 AM CDT on June 28, 2017 (GMT -0500)
Kyle-Oakley

Weather History for KCEY - October, 2012

Change the Weather History Date:

Monday, October 29, 2012

  Actual Average (KPAH) Record (KPAH)
Temperature  
Mean Temperature 42 °F -  
Max Temperature 53 °F 65 °F 85 °F (1950)
Min Temperature 32 °F 43 °F 23 °F (1952)
Degree Days  
Heating Degree Days 22    
Moisture  
Dew Point 28 °F    
Average Humidity 58    
Maximum Humidity 93    
Minimum Humidity 26    
Precipitation  
Precipitation 0.00 in - - ()
Sea Level Pressure  
Sea Level Pressure 30.15 in    
Wind  
Wind Speed 11 mph (NNW)    
Max Wind Speed 23 mph    
Max Gust Speed 32 mph    
Visibility 10 miles    
Events      
Averages and records for this station are not official NWS values.
T = Trace of Precipitation, MM = Missing Value Source: NWS Daily Summary

Daily Weather History Graph

Daily Weather History Graph

Search for Another Location

Airport or City:

Trip Planner

Search our weather history database for the weather conditions in past years. The results will help you decide how hot, cold, wet, or windy it might be!

Date:

Astronomy

Oct. 29, 2012 Rise Set
Actual Time 7:14 AM CDT 5:59 PM CDT
Civil Twilight 6:47 AM CDT 6:25 PM CDT
Nautical Twilight 6:17 AM CDT 6:56 PM CDT
Astronomical Twilight 5:47 AM CDT 7:26 PM CDT
Moon 5:52 PM CDT (10/29) 7:04 AM CDT (10/29)
Length of Visible Light 11h 37m
Length of Day
10h 44m
Full, 100% of the Moon is Illuminated
Oct 29
Full
Oct 29
Full
Nov 6
Last Quarter
Nov 13
New
Nov 20
First Quarter

Hourly Weather History & Observations

Time (CDT) Temp. Windchill Dew Point Humidity Pressure Visibility Wind Dir Wind Speed Gust Speed Precip Events Conditions
12:15 AM 39.2 °F 33.0 °F 32.0 °F 75% 30.17 in 10.0 mi North 9.2 mph - N/A   Clear
12:35 AM 39.2 °F 32.0 °F 32.0 °F 75% 30.17 in 10.0 mi NNW 11.5 mph - N/A   Clear
12:55 AM 39.2 °F 32.5 °F 32.0 °F 75% 30.17 in 10.0 mi NNW 10.4 mph - N/A   Clear
1:15 AM 39.2 °F 33.6 °F 32.0 °F 75% 30.17 in 10.0 mi NNW 8.1 mph - N/A   Clear
1:35 AM 39.2 °F 34.2 °F 32.0 °F 75% 30.17 in 10.0 mi NNW 6.9 mph - N/A   Clear
1:55 AM 37.4 °F 32.8 °F 32.0 °F 81% 30.17 in 10.0 mi North 5.8 mph - N/A   Clear
2:15 AM 37.4 °F 32.1 °F 32.0 °F 81% 30.17 in 10.0 mi NNW 6.9 mph - N/A   Clear
2:35 AM 37.4 °F 31.4 °F 32.0 °F 81% 30.17 in 10.0 mi North 8.1 mph - N/A   Clear
2:55 AM 37.4 °F 31.4 °F 32.0 °F 81% 30.17 in 10.0 mi NNW 8.1 mph - N/A   Clear
3:15 AM 37.4 °F 31.4 °F 32.0 °F 81% 30.17 in 10.0 mi NNW 8.1 mph - N/A   Clear
3:35 AM 35.6 °F 30.7 °F 30.2 °F 81% 30.17 in 10.0 mi NNW 5.8 mph - N/A   Clear
3:55 AM 35.6 °F 29.9 °F 30.2 °F 81% 30.17 in 10.0 mi NW 6.9 mph - N/A   Clear
4:15 AM 35.6 °F 29.9 °F 30.2 °F 81% 30.17 in 10.0 mi NNW 6.9 mph - N/A   Clear
4:35 AM 35.6 °F 29.2 °F 30.2 °F 81% 30.18 in 10.0 mi NW 8.1 mph - N/A   Clear
4:55 AM 35.6 °F 29.2 °F 30.2 °F 81% 30.18 in 10.0 mi NNW 8.1 mph - N/A   Clear
5:15 AM 35.6 °F 29.2 °F 30.2 °F 81% 30.18 in 10.0 mi NNW 8.1 mph - N/A   Clear
5:55 AM 35.6 °F 29.2 °F 30.2 °F 81% 30.18 in 10.0 mi NNW 8.1 mph - N/A   Clear
6:15 AM 35.6 °F 29.9 °F 30.2 °F 81% 30.18 in 10.0 mi NNW 6.9 mph - N/A   Clear
6:35 AM 33.8 °F 27.7 °F 30.2 °F 87% 30.19 in 10.0 mi NW 6.9 mph - N/A   Clear
6:55 AM 33.8 °F 27.7 °F 30.2 °F 87% 30.19 in 10.0 mi NNW 6.9 mph - N/A   Clear
7:15 AM 33.8 °F 27.7 °F 30.2 °F 87% 30.19 in 10.0 mi NNW 6.9 mph - N/A   Clear
7:35 AM 32.0 °F 25.6 °F 30.2 °F 93% 30.19 in 10.0 mi NNW 6.9 mph - N/A   Clear
7:55 AM 33.8 °F 27.0 °F 30.2 °F 87% 30.20 in 10.0 mi NNW 8.1 mph - N/A   Clear
8:15 AM 35.6 °F 29.2 °F 32.0 °F 87% 30.21 in 10.0 mi NNW 8.1 mph - N/A   Clear
8:35 AM 37.4 °F 30.8 °F 32.0 °F 81% 30.21 in 10.0 mi NNW 9.2 mph - N/A   Clear
8:55 AM 39.2 °F 32.0 °F 32.0 °F 75% 30.21 in 10.0 mi North 11.5 mph 16.1 mph N/A   Clear
9:35 AM 42.8 °F 35.4 °F 30.2 °F 61% 30.21 in 10.0 mi North 15.0 mph 23.0 mph N/A   Clear
9:55 AM 44.6 °F 37.2 °F 30.2 °F 57% 30.21 in 10.0 mi North 17.3 mph 23.0 mph N/A   Clear
10:15 AM 44.6 °F 37.2 °F 30.2 °F 57% 30.21 in 10.0 mi North 17.3 mph 25.3 mph N/A   Clear
10:35 AM 46.4 °F 39.0 °F 30.2 °F 53% 30.22 in 10.0 mi North 19.6 mph 26.5 mph N/A   Clear
10:55 AM 46.4 °F 40.1 °F 28.4 °F 50% 30.22 in 10.0 mi North 15.0 mph 28.8 mph N/A   Clear
11:15 AM 48.2 °F - 28.4 °F 46% 30.22 in 10.0 mi North 18.4 mph 27.6 mph N/A   Clear
11:35 AM 48.2 °F - 26.6 °F 43% 30.21 in 10.0 mi North 19.6 mph 26.5 mph N/A   Clear
11:55 AM 50.0 °F - 26.6 °F 40% 30.20 in 10.0 mi North 17.3 mph 26.5 mph N/A   Clear
12:15 PM 50.0 °F - 26.6 °F 40% 30.19 in 10.0 mi North 18.4 mph 28.8 mph N/A   Clear
12:55 PM 51.8 °F - 24.8 °F 35% 30.17 in 10.0 mi NNE 19.6 mph 29.9 mph N/A   Clear
1:15 PM 51.8 °F - 24.8 °F 35% 30.16 in 10.0 mi North 17.3 mph 23.0 mph N/A   Clear
1:35 PM 53.6 °F - 23.0 °F 30% 30.15 in 10.0 mi North 16.1 mph 25.3 mph N/A   Clear
1:55 PM 53.6 °F - 24.8 °F 33% 30.14 in 10.0 mi North 17.3 mph 25.3 mph N/A   Clear
2:15 PM 53.6 °F - 23.0 °F 30% 30.13 in 10.0 mi North 16.1 mph 26.5 mph N/A   Clear
2:35 PM 53.6 °F - 24.8 °F 33% 30.12 in 10.0 mi North 13.8 mph 24.2 mph N/A   Clear
2:55 PM 53.6 °F - 23.0 °F 30% 30.12 in 10.0 mi North 21.9 mph 28.8 mph N/A   Clear
3:35 PM 53.6 °F - 19.4 °F 26% 30.11 in 10.0 mi North 23.0 mph 32.2 mph N/A   Clear
3:55 PM 53.6 °F - 19.4 °F 26% 30.10 in 10.0 mi North 20.7 mph 24.2 mph N/A   Clear
4:15 PM 53.6 °F - 21.2 °F 28% 30.10 in 10.0 mi North 16.1 mph 21.9 mph N/A   Clear
4:35 PM 53.6 °F - 23.0 °F 30% 30.09 in 10.0 mi North 16.1 mph 20.7 mph N/A   Clear
4:55 PM 53.6 °F - 21.2 °F 28% 30.09 in 10.0 mi North 12.7 mph 19.6 mph N/A   Clear
5:15 PM 53.6 °F - 23.0 °F 30% 30.08 in 10.0 mi North 13.8 mph 25.3 mph N/A   Clear
5:35 PM 51.8 °F - 23.0 °F 33% 30.08 in 10.0 mi NNW 12.7 mph 18.4 mph N/A   Clear
5:55 PM 50.0 °F - 24.8 °F 37% 30.08 in 10.0 mi North 10.4 mph 20.7 mph N/A   Clear
6:15 PM 48.2 °F - 24.8 °F 40% 30.08 in 10.0 mi NW 9.2 mph - N/A   Clear
6:35 PM 48.2 °F - 24.8 °F 40% 30.08 in 10.0 mi NNW 10.4 mph 16.1 mph N/A   Clear
6:55 PM 48.2 °F - 26.6 °F 43% 30.08 in 10.0 mi NW 8.1 mph - N/A   Clear
7:15 PM 46.4 °F 41.9 °F 24.8 °F 43% 30.07 in 10.0 mi NW 9.2 mph - N/A   Clear
7:35 PM 46.4 °F 41.9 °F 26.6 °F 46% 30.07 in 10.0 mi NW 9.2 mph - N/A   Clear
7:55 PM 46.4 °F 41.9 °F 26.6 °F 46% 30.07 in 10.0 mi NW 9.2 mph - N/A   Clear
10:55 PM 42.8 °F 38.0 °F 28.4 °F 57% 30.05 in 10.0 mi NW 8.1 mph - N/A   Clear
11:15 PM 41.0 °F 36.4 °F 28.4 °F 61% 30.04 in 10.0 mi NNW 6.9 mph - N/A   Clear
11:35 PM 42.8 °F 37.0 °F 26.6 °F 53% 30.03 in 10.0 mi NNW 10.4 mph 17.3 mph N/A   Clear
11:55 PM 41.0 °F 35.2 °F 26.6 °F 57% 30.02 in 10.0 mi NW 9.2 mph - N/A   Clear